Regional Weather Roundup
Issued by NWS Green Bay, WI

Home | Current Version | Previous Version | Text Only | Print | Product List | Glossary On
Versions: 1 2 3 4 5 6 7 8 9 10 11 12 13 14 15 16 17 18 19 20 21 22 23 24 25 26 27 28 29 30 31 32 33 34 35 36 37 38 39 40 41 42 43 44 45 46 47 48 49 50
288
ASUS43 KGRB 292211
RWRGRB

NORTH-CENTRAL AND NORTHEAST WISCONSIN REGIONAL WEATHER ROUNDUP
NATIONAL WEATHER SERVICE GREEN BAY WI
500 PM CDT FRI APR 29 2016

WIZ005-009-010>012-018-019-292300-
NORTH CENTRAL WISCONSIN

CITY           SKY/WX    TMP DP  RH WIND       PRES   REMARKS
IRONWOOD         N/A     46  30  53 NE10      30.14R
MANITOWISH WTR PTSUNNY   56  32  39 CALM      30.10R
ARBOR VITAE    CLOUDY    57  34  42 SE3       30.11R
EAGLE RIVER    CLOUDY    55  28  35 CALM      30.10S
LAND O LAKES   CLOUDY    56  29  36 E8        30.12R
RHINELANDER    MOSUNNY   56  29  35 CALM      30.12R
PHILLIPS       CLOUDY    57  33  40 CALM      30.09S
ANTIGO         CLOUDY    54  31  42 CALM      30.11R
TOMAHAWK       CLOUDY    55  33  42 CALM      30.11S
MERRILL        CLOUDY    56  35  46 S5        30.11R
$$

WIZ013-073-292300-
NORTHEAST WISCONSIN

CITY           SKY/WX    TMP DP  RH WIND       PRES   REMARKS
IRON MOUNTAIN  CLOUDY    59  24  26 S6        30.09S
MARINETTE      SUNNY     54  27  35 E7        30.14R
OCONTO         MOSUNNY   53  28  38 NE5       30.13S
$$

WIZ017-030-035>037-045-292300-
CENTRAL WISCONSIN

CITY           SKY/WX    TMP DP  RH WIND       PRES   REMARKS
MEDFORD        CLOUDY    52  38  59 SW5       30.10F
WAUSAU         CLOUDY    57  33  40 SW5       30.09R
MOSINEE        CLOUDY    54  34  47 VRB5      30.12S
MARSHFIELD     MOSUNNY   57  36  45 N6        30.10F
WISC RAPIDS    MOSUNNY   57  33  40 SE6       30.12S
STEVENS POINT  CLOUDY    54  33  45 NE5       30.12S
WAUPACA        SUNNY     58  32  36 NE3       30.13R
SHAWANO        CLOUDY    56  33  42 NE5       30.13S
CLINTONVILLE   CLOUDY    54  32  43 E7        30.12S
WAUTOMA        MOSUNNY   55  33  43 E8        30.11
$$

WIZ038-039-048-051-292300-
FOX VALLEY

CITY           SKY/WX    TMP DP  RH WIND       PRES   REMARKS
NWS GREEN BAY  SUNNY     55  35  47 E7        30.13S
APPLETON       MOSUNNY   54  30  40 NE13      30.10S
OSHKOSH        SUNNY     54  34  46 E7        30.12R
FOND DU LAC    SUNNY     56  32  40 NE13      30.11S
$$

WIZ022-050-052-292300-
EAST CENTRAL WISCONSIN

CITY           SKY/WX    TMP DP  RH WIND       PRES   REMARKS
EPHRAIM        FAIR      53  27  36 SE7       30.13R
STURGEON BAY   SUNNY     54  27  35 NE8       30.15S
MANITOWOC      SUNNY     53  30  41 E6        30.13R
SHEBOYGAN      SUNNY     51  30  44 E13       30.13S
$$

LMZ563-521-522-541>543-292300-
LAKESHORE

STATION/POSITION TIME  TEMP    WIND        PRES    VSBY  WAVE
                       AIR SEA DIR/SP/G                  HT/PER
                 (UTC) (F)     (DEG/KT/KT) (MB)    (MI)  (FT/S)
SHEBOYGAN LKSHOR 2200   41      30/  5/  6 1021.4R
KEWAUNEE LKSHORE 2100   44      40/  7/  9 1019.0F
ALGOMA MARINA    2115           70/ 13/ 16   N/A
NORTHPORT PIER   2100   47     120/  2/  3 1019.6F
N MID LAKE BUOY  2150   40 39  340/  4/  6 1019.9F         0
CHAMBERS ISLAND  2100   46     340/  4/  6 1020.7F
MENOMINEE LKSHOR 2100   45      20/  7/  8 1019.3F
$$




USA.gov is the U.S. government's official web portal to all federal, state and local government web resources and services.